This is the latest recevied weather packets stored in our database for station/object PP5CI-13. If no packets are shown the sender has not sent any weather packets the latest 10 day(s).
| Time | Temp. | Humidity | Pressure | Rain* | Wind** | Luminosity | Snow |
|---|---|---|---|---|---|---|---|
| 1788351921 | 20.56° C | 87% | 1020.2 hPa | 0 mm | - | - | - |
| 1788351321 | 21.11° C | 87% | 1020.2 hPa | 0 mm | - | - | - |
| 1788350721 | 21.11° C | 89% | 1020.2 hPa | 0 mm | - | - | - |
| 1788350121 | 20.56° C | 90% | 1020.2 hPa | 0 mm | - | - | - |
| 1788349522 | 20.56° C | 92% | 1020.2 hPa | 0 mm | - | - | - |
| 1788348922 | 19.44° C | 95% | 1019.2 hPa | 0 mm | - | - | - |
| 1788348321 | 19.44° C | 96% | 1019.2 hPa | 0 mm | - | - | - |
| 1788347722 | 18.89° C | 97% | 1019.2 hPa | 0 mm | - | - | - |
| 1788347121 | 18.89° C | 97% | 1019.2 hPa | 0 mm | - | - | - |
| 1788346521 | 18.89° C | 98% | 1019.2 hPa | 0 mm | - | - | - |
| 1788345922 | 18.33° C | 98% | 1019.2 hPa | 0 mm | - | - | - |
| 1788345321 | 18.33° C | 99% | 1018.2 hPa | 0 mm | - | - | - |
| 1788344721 | 18.33° C | 99% | 1018.2 hPa | 0 mm | - | - | - |
| 1788344121 | 17.78° C | 99% | 1018.2 hPa | 0 mm | - | - | - |
| 1788343521 | 17.78° C | 99% | 1018.2 hPa | 0 mm | - | - | - |
| 1788342922 | 17.78° C | 99% | 1018.2 hPa | 0 mm | - | - | - |
| 1788342322 | 17.78° C | 99% | 1018.2 hPa | 0 mm | - | - | - |
| 1788341721 | 17.78° C | 99% | 1018.2 hPa | 0 mm | - | - | - |
| 1788341121 | 17.78° C | 99% | 1018.2 hPa | 0 mm | - | - | - |
| 1788340521 | 17.78° C | 99% | 1018.2 hPa | 0 mm | - | - | - |
| 1788339921 | 17.78° C | 99% | 1018.2 hPa | 0 mm | - | - | - |
| 1788339321 | 18.33° C | 99% | 1018.2 hPa | 0 mm | - | - | - |
| 1788338722 | 18.33° C | 99% | 1018.2 hPa | 0 mm | - | - | - |
| 1788338121 | 18.33° C | 96% | 1017.6 hPa | 0 mm | - | - | - |
| 1788337522 | 18.33° C | 95% | 1017.2 hPa | 0 mm | - | - | - |
* Rain latest hour (hover to see other rain measurements)
** Current wind speed in m/s (hover to see current wind gust speed)